Location: ??????
(56.0120°N, 39.1740°E)
Time: 14:26:35
(UTC+00:00)

SL-8 Rocket - Pass Details

Date: 14 April 2026
Orbit: 957 x 989 km, 82.9° (Epoch: 17 May)

Event Time Altitude Azimuth Distance (km) Brightness Sun altitude
Rises 17:13:28 0° 169° (SSE) 3,662 6.6 -6.7°
Reaches altitude 10° 17:16:02 10° 164° (SSE) 2,723 5.9 -7.0°
Maximum altitude 17:22:00 50° 91° (E) 1,239 4.3 -7.7°
Drops below altitude 10° 17:28:04 10° 18° (NNE) 2,758 6.5 -8.4°
Sets 17:30:40 0° 14° (NNE) 3,713 7.3 -8.7°
